TimeMDT,TemperatureF,Dew PointF,Humidity,Sea Level PressureIn,VisibilityMPH,Wind Direction,Wind SpeedMPH,Gust SpeedMPH,PrecipitationIn,Events,Conditions,WindDirDegrees,DateUTC
12:53 AM,17.1,7.0,65,29.86,10.0,West,10.4,-,N/A,,Clear,260,2013-03-22 06:53:00
1:53 AM,18.0,6.1,60,29.84,10.0,WNW,11.5,-,N/A,,Clear,300,2013-03-22 07:53:00
2:53 AM,16.0,5.0,62,29.84,10.0,WSW,6.9,-,N/A,,Clear,250,2013-03-22 08:53:00
3:53 AM,17.1,6.1,62,29.82,10.0,North,4.6,-,N/A,,Clear,10,2013-03-22 09:53:00
4:53 AM,17.1,6.1,62,29.81,10.0,Calm,Calm,-,N/A,,Clear,0,2013-03-22 10:53:00
5:53 AM,17.1,7.0,65,29.80,-9999.0,WSW,17.3,-,N/A,,Clear,250,2013-03-22 11:53:00
6:53 AM,18.0,5.0,57,29.80,-9999.0,WSW,17.3,-,N/A,,Clear,250,2013-03-22 12:53:00
7:53 AM,21.0,5.0,50,29.81,10.0,WSW,12.7,-,N/A,,Clear,240,2013-03-22 13:53:00
8:53 AM,24.1,3.9,42,29.79,-9999.0,West,17.3,-,N/A,,Clear,260,2013-03-22 14:53:00
9:53 AM,27.0,3.9,37,29.78,10.0,West,15.0,25.3,N/A,,Clear,270,2013-03-22 15:53:00
10:53 AM,28.0,3.0,34,29.78,-9999.0,West,18.4,25.3,N/A,,Mostly Cloudy,280,2013-03-22 16:53:00
11:53 AM,28.9,3.9,35,29.78,-9999.0,West,17.3,28.8,N/A,,Overcast,280,2013-03-22 17:53:00
12:53 PM,30.0,3.0,32,29.77,10.0,WSW,16.1,28.8,N/A,,Scattered Clouds,240,2013-03-22 18:53:00
2:53 PM,28.9,3.0,33,29.77,-9999.0,WNW,17.3,-,N/A,,Overcast,300,2013-03-22 20:53:00
3:53 PM,30.9,-0.9,26,29.75,-9999.0,West,16.1,23.0,N/A,,Overcast,280,2013-03-22 21:53:00
4:53 PM,27.0,1.9,34,29.81,-9999.0,WNW,13.8,-,N/A,,Overcast,300,2013-03-22 22:53:00
5:53 PM,25.0,1.9,37,29.83,-9999.0,NNW,13.8,-,N/A,,Overcast,340,2013-03-22 23:53:00
6:53 PM,25.0,3.9,41,29.83,-9999.0,North,9.2,-,N/A,,Overcast,360,2013-03-23 00:53:00
7:42 PM,19.4,14.0,80,29.76,-9999.0,NNE,8.1,-,0.00,Snow,Light Snow,20,2013-03-23 01:42:00
7:53 PM,21.0,12.9,71,29.86,-9999.0,NNE,5.8,-,0.00,,Overcast,20,2013-03-23 01:53:00
8:07 PM,21.2,10.4,63,29.76,-9999.0,NNE,8.1,-,N/A,,Overcast,30,2013-03-23 02:07:00
8:53 PM,21.9,5.0,48,29.85,-9999.0,NNE,10.4,-,N/A,,Overcast,20,2013-03-23 02:53:00
9:53 PM,19.9,12.9,74,29.86,-9999.0,NE,8.1,-,N/A,,Overcast,50,2013-03-23 03:53:00
10:53 PM,18.0,10.9,74,29.89,-9999.0,East,15.0,-,N/A,,Overcast,80,2013-03-23 04:53:00
11:29 PM,17.6,10.4,73,29.81,-9999.0,ENE,15.0,-,N/A,,Overcast,70,2013-03-23 05:29:00
11:53 PM,17.1,10.0,74,29.89,-9999.0,ENE,15.0,-,0.00,,Overcast,60,2013-03-23 05:53:00